Regional Weather Roundup
Issued by NWS

Home | Current Version | Previous Version | Text Only | Print | Product List | Glossary Off
Versions: 1 2 3 4 5 6 7 8 9 10 11 12 13 14 15 16 17 18 19 20 21 22 23 24 25 26 27 28 29 30 31 32 33 34 35 36 37 38 39 40 41 42 43 44 45 46 47 48 49 50

000
ASUS43 KDMX 180307
RWRIA

WEATHER ROUNDUP FOR IOWA
NATIONAL WEATHER SERVICE DES MOINES IA
1000 PM CDT WED SEP 17 2014

NOTE: "FAIR" INDICATES FEW OR NO CLOUDS BELOW 12,000 FEET WITH NO
SIGNIFICANT WEATHER AND/OR OBSTRUCTIONS TO VISIBILITY.

* - THESE STATIONS ARE NOT NWS STATIONS...THUS NOT UNDER NWS
QUALITY CONTROL.  THEY ALSO DO NOT REPORT WEATHER SUCH
AS PRECIPITATION OR FOG.

IAZ001>003-012>014-020>022-031>034-043>046-180400-
   NORTHWEST IOWA

CITY           SKY/WX    TMP DP  RH WIND       PRES   REMARKS
CARROLL *      CLEAR     55  54  94 S5        29.99R
CHEROKEE *     CLEAR     61  55  82 CALM      29.97S
DENISON *      PTCLDY    61  57  88 E7        29.96R
LE MARS *      CLOUDY    66  57  72 SE6       29.96S
ORANGE CITY *  CLEAR     64  54  68 CALM      29.97S
SHELDON *      CLOUDY    61  57  88 CALM      29.97R
SIOUX CITY     CLEAR     66  59  78 E7        29.96R
SPENCER        PTCLDY    57  53  86 E3        29.98R
STORM LAKE *   CLEAR     59  55  88 SE7       29.98S
$$

IAZ055>058-069>071-079>083-090>094-180400-
   SOUTHWEST IOWA

CITY           SKY/WX    TMP DP  RH WIND       PRES   REMARKS
ATLANTIC *     CLEAR     63  57  82 CALM      29.97R
AUDUBON *      PTCLDY    57  52  82 CALM      30.00R
CLARINDA *     CLEAR     63  59  88 CALM      29.97R
COUNCIL BLFS * CLEAR     66  63  88 E8        29.95R
CRESTON *      CLOUDY    61  59  94 E5        29.99R
HARLAN  *      CLEAR     63  59  88 CALM      30.01R
LAMONI         CLEAR     63  59  87 E5        29.98R
SHENANDOAH *     N/A     63  61  94 NE3       29.96R
$$

IAZ047>049-059>061-072>074-084-180400-
   CENTRAL IOWA

CITY           SKY/WX    TMP DP  RH WIND       PRES   REMARKS
AMES           CLEAR     55  53  93 CALM      29.99R
ANKENY *       CLEAR     61  57  88 CALM      29.99R
CHARITON *     CLEAR     59  57  94 SE5       29.99R
DES MOINES     CLEAR     66  57  72 E7        29.99R
GRINNELL*      CLEAR     55  54  94 E3        30.01R
KNOXVILLE *    CLEAR     63  57  82 SE6       29.98S
MARSHALLTOWN   CLEAR     56  52  86 SE7       30.00R
PELLA *        CLEAR     61  55  82 E5        30.01R
PERRY *          N/A     59  55  88 SE3       29.99R
$$

IAZ004>006-015-016-023>025-035-036-180400-
   NORTH CENTRAL IOWA

CITY           SKY/WX    TMP DP  RH WIND       PRES   REMARKS
ALGONA *       PTCLDY    61  55  82 SE6       29.99R
CLARION *        N/A     57  52  82 SE8       30.00R
ESTHERVILLE    MOCLDY    58  55  90 E3        29.98R
FORT DODGE *   CLEAR     55  52  88 SE5       30.00R
MASON CITY     CLEAR     51  50  96 SE6       30.02R
FOREST CITY *  PTCLDY    54  52  94 CALM      30.00R
IOWA FALLS *     N/A     54  50  87 CALM      30.01R
$$

IAZ007>011-017>019-026>030-037>042-050>054-066-180400-
   NORTHEAST IOWA

CITY           SKY/WX    TMP DP  RH WIND       PRES   REMARKS
CEDAR RAPIDS   CLEAR     55  53  93 CALM      30.00R
CHARLES CITY * CLEAR     54  52  94 SE5       30.01R
CLINTON *      CLEAR     54  48  82 E3        30.04R
DECORAH *      CLEAR     55  52  88 SE5       30.01R
DUBUQUE        CLEAR     53  50  89 CALM      30.03R
MONTICELLO *   CLEAR     52  52 100 CALM      30.02R
OELWEIN *      CLEAR     52  50  93 SE5       30.02R
WATERLOO       CLEAR     54  50  86 CALM      30.00R
$$

IAZ064-065-067-068-078-180400-
   EAST CENTRAL IOWA

CITY           SKY/WX    TMP DP  RH WIND       PRES   REMARKS
DAVENPORT      CLEAR     52  48  86 E5        30.02R
IOWA CITY      CLEAR     56  54  93 CALM      30.02R
MT. PLEASANT * CLEAR     55  54  94 E3        30.01R
MUSCATINE *    CLEAR     57  54  88 CALM      30.02R
QUAD CITIES    CLEAR     56  52  86 CALM      30.02R
$$

IAZ062-063-075>077-085>089-095>099-180400-
   SOUTHEAST IOWA

CITY           SKY/WX    TMP DP  RH WIND       PRES   REMARKS
BURLINGTON     CLEAR     58  53  84 SE3       30.01R
FAIRFIELD *    CLEAR     55  52  88 E3        30.01R
FORT MADISON * CLEAR     57  54  88 E3        30.01S
KEOKUK *       CLEAR     57  55  94 E5        29.99S
OSKALOOSA *      N/A     57  55  94 SE6       30.01R
CENTERVILLE *    N/A     57  57 100 E5        30.00S
OTTUMWA        CLEAR     57  53  86 E5        30.00R
WASHINGTON *   CLEAR     55  54  94 CALM      30.01R
$$

ABBREVIATIONS USED IN REMARKS
   TC - TEMPERATURES IN CELSIUS
  WCI - WIND CHILL INDEX
   HX - HEAT INDEX
  VSB - VISIBILITY
$$



USA.gov is the U.S. government's official web portal to all federal, state and local government web resources and services.